Port Isabel, TX

7:05 AM CDT on October 19, 2017 (GMT -0500)
Port Isabel-Cameron County

Weather History for KPIL - December, 2013

Change the Weather History Date:

Sunday, December 1, 2013

  Actual Average (KBRO) Record (KBRO)
Temperature  
Mean Temperature 72 °F -  
Max Temperature 79 °F 73 °F 88 °F (1942)
Min Temperature 64 °F 55 °F 34 °F (1911)
Cooling Degree Days 6    
Growing Degree Days 22 (Base 50)    
Moisture  
Dew Point 62 °F    
Average Humidity 75    
Maximum Humidity 90    
Minimum Humidity 57    
Precipitation  
Precipitation 0.00 in - - ()
Sea Level Pressure  
Sea Level Pressure 30.11 in    
Wind  
Wind Speed 6 mph (SSE)    
Max Wind Speed 15 mph    
Max Gust Speed 22 mph    
Visibility 9 miles    
Events      
Averages and records for this station are not official NWS values.
T = Trace of Precipitation, MM = Missing Value Source: NWS Daily Summary

Daily Weather History Graph

Daily Weather History Graph

Search for Another Location

Airport or City:

Trip Planner

Search our weather history database for the weather conditions in past years. The results will help you decide how hot, cold, wet, or windy it might be!

Date:

Astronomy

Dec. 01, 2013 Rise Set
Actual Time 6:59 AM CST 5:37 PM CST
Civil Twilight 6:34 AM CST 6:02 PM CST
Nautical Twilight 6:06 AM CST 6:30 PM CST
Astronomical Twilight 5:38 AM CST 6:58 PM CST
Moon 5:26 AM CST (12/1) 4:42 PM CST (12/1)
Length of Visible Light 11h 27m
Length of Day
10h 37m
Waning Crescent, 2% of the Moon is Illuminated
Dec 1
Waning Crescent
Dec 2
New
Dec 9
First Quarter
Dec 17
Full
Dec 25
Last Quarter

Hourly Weather History & Observations

Time (CST) Temp. Dew Point Humidity Pressure Visibility Wind Dir Wind Speed Gust Speed Precip Events Conditions
12:53 AM 66.9 °F 60.1 °F 79% 30.18 in 9.0 mi SE 4.6 mph - N/A   Overcast
1:53 AM 68.0 °F 60.1 °F 76% 30.17 in 9.0 mi SSE 4.6 mph - N/A   Overcast
2:53 AM 66.0 °F 60.1 °F 81% 30.16 in 9.0 mi Calm Calm - N/A   Clear
3:53 AM 64.9 °F 60.1 °F 84% 30.17 in 9.0 mi SW 3.5 mph - N/A   Mostly Cloudy
4:53 AM 64.9 °F 61.0 °F 87% 30.15 in 9.0 mi SSW 4.6 mph - N/A   Overcast
5:53 AM 64.0 °F 60.1 °F 87% 30.15 in 9.0 mi South 4.6 mph - N/A   Clear
6:53 AM 64.0 °F 60.1 °F 87% 30.16 in 9.0 mi SSE 3.5 mph - N/A   Mostly Cloudy
7:53 AM 68.0 °F 62.1 °F 81% 30.17 in 8.0 mi South 3.5 mph - N/A   Overcast
8:53 AM 73.0 °F 63.0 °F 71% 30.18 in 8.0 mi SE 4.6 mph - N/A   Mostly Cloudy
9:53 AM 75.9 °F 63.0 °F 64% 30.19 in 8.0 mi SSE 8.1 mph - N/A   Partly Cloudy
10:53 AM 78.1 °F 63.0 °F 60% 30.17 in 8.0 mi SSE 13.8 mph - N/A   Mostly Cloudy
11:17 AM 78.8 °F 62.6 °F 57% 30.16 in 8.0 mi SSE 12.7 mph - N/A   Mostly Cloudy
11:53 AM 79.0 °F 63.0 °F 58% 30.14 in 8.0 mi South 11.5 mph - N/A   Scattered Clouds
12:53 PM 78.1 °F 63.0 °F 60% 30.10 in 8.0 mi SE 15.0 mph - N/A   Overcast
1:53 PM 77.0 °F 63.0 °F 62% 30.07 in 8.0 mi SSE 13.8 mph 21.9 mph N/A   Overcast
2:53 PM 77.0 °F 63.0 °F 62% 30.06 in 8.0 mi SE 13.8 mph - N/A   Overcast
3:53 PM 75.9 °F 63.0 °F 64% 30.04 in 8.0 mi SE 12.7 mph - N/A   Scattered Clouds
4:53 PM 75.0 °F 63.0 °F 66% 30.04 in 8.0 mi SSE 12.7 mph - N/A   Clear
5:53 PM 73.0 °F 63.0 °F 71% 30.04 in 9.0 mi SSE 9.2 mph - N/A   Clear
6:53 PM 70.0 °F 64.0 °F 81% 30.04 in 10.0 mi SSE 6.9 mph - N/A   Clear
7:53 PM 68.0 °F 63.0 °F 84% 30.04 in 10.0 mi South 4.6 mph - N/A   Clear
8:53 PM 66.9 °F 63.0 °F 87% 30.05 in 9.0 mi South 4.6 mph - N/A   Clear
9:53 PM 66.0 °F 63.0 °F 90% 30.04 in 9.0 mi South 4.6 mph - N/A   Clear
10:53 PM 66.0 °F 63.0 °F 90% 30.03 in 9.0 mi South 4.6 mph - N/A   Clear
11:53 PM 64.9 °F 62.1 °F 90% 30.00 in 8.0 mi South 5.8 mph - N/A   Clear